Location: Lombard
(41.8800°N, 88.0080°W)
Time: 19:29:26
(UTC-05:00)

Transit 2A - Pass Details

Date: 09 February 2023
Orbit: 591 x 964 km, 66.7° (Epoch: 29 March)

Event Time Altitude Azimuth Distance (km) Brightness Sun altitude
Rises 00:37:40 0° 328° (NNW) 3,535 - -62.0°
Reaches altitude 10° 00:40:08 10° 327° (NNW) 2,629 - -61.9°
Maximum altitude 00:46:20 77° 243° (WSW) 983 - -61.5°
Drops below altitude 10° 00:52:42 10° 158° (SSE) 2,692 - -61.1°
Sets 00:55:15 0° 157° (SSE) 3,625 - -60.9°
